Regional Weather Roundup
Issued by NWS

Home | Current Version | Previous Version | Graphics & Text | Print | Product List | Glossary On
Versions: 1 2 3 4 5 6 7 8 9 10 11 12 13 14 15 16 17 18 19 20 21 22 23 24 25 26 27 28 29 30 31 32 33 34 35 36 37 38 39 40 41 42 43 44 45 46 47 48 49 50
000
ASUS45 KTFX 281404
RWRMT
MONTANA HOURLY WEATHER ROUNDUP
NATIONAL WEATHER SERVICE GREAT FALLS MT
704 AM MST WED JAN 28 2015

NOTE: "FAIR" INDICATES FEW OR NO CLOUDS BELOW 12000 FEET WITH NO
SIGNIFICANT WEATHER AND/OR OBSTRUCTIONS TO VISIBILITY.

* THESE STATIONS ARE NOT UNDER NWS QUALITY CONTROL. THEY DO NOT
   REPORT WEATHER SUCH AS PRECIPITATION OR FOG.

MTZ001>007-043-281500-
WEST OF THE DIVIDE
CITY           SKY/WX    TMP DP  RH WIND       PRES   REMARKS
KALISPELL      FOG       12  10  92 N3        30.20R
MISSOULA       MOCLDY    27  25  92 CALM      30.23R
BUTTE          PTCLDY    30  27  89 NE3       30.16R
MULLAN PASS    FOG       28  27  96 VRB3      30.19R VSB M1/4
* ANACONDA     PTCLDY    36  27  70 N/A        N/A
* ESSEX        N/A       25  23  92 N/A        N/A
* LINCOLN      N/A       36  24  62 S3G9       N/A
* LOOKOUT PASS N/A       33  31  92 N2         N/A
* POLSON       N/A       35  28  76 SW2        N/A
* SEELEY LAKE  N/A       19  17  92 N2         N/A
* THOMP F APT  PTCLDY    31  30  96 N/A        N/A
* YAAK HILL    N/A       32  30  92 N/A        N/A
$$

MTZ008-052>055-281500-
SOUTHWEST MONTANA
CITY           SKY/WX    TMP DP  RH WIND       PRES   REMARKS
BOZEMAN        CLOUDY    34  32  92 CALM      30.13R
DILLON         CLOUDY    34  30  85 SW7       30.13R WCI  28
* W YELLOWSTON MOCLDY    32  31  96 SW2        N/A
* THREE FORKS  CLOUDY    37  37 100 N/A        N/A
* BOULDER HILL N/A       38  20  48 N4         N/A
* MONIDA PASS  N/A       28  28 100 E2         N/A
* RAYNOLDS PAS N/A       32  14  47 SE6        N/A   WCI  26
* WHITEHALL    N/A       38  27  65 W3G11      N/A
* WISE RIVER   N/A       33  28  82 SW3G10     N/A
$$

MTZ009>010-012-014-046-048-049-054-281500-
EAST SLOPES AND CENTRAL MONTANA
CITY           SKY/WX    TMP DP  RH WIND       PRES   REMARKS
CUT BANK       CLEAR     30  25  82 N12       30.10R WCI  20
GREAT FALLS    PTCLDY    34  25  70 SW8       30.07R WCI  27
HELENA         CLOUDY    43  27  53 W15       30.13R
MALMSTROM AFB  PTCLDY    37  25  62 SW3       30.09R
* DEARBORN     N/A       42  25  51 S5G10      N/A
* EAST GLACIER N/A       37  23  57 NW16G24    N/A   WCI  28
* MONARCH      N/A       37  15  41 W6G11      N/A   WCI  32
* PENDROY      N/A       36  24  62 W13        N/A   WCI  27
* ROGERS PASS  N/A       34  24  67 W1G13      N/A
* SWEET GRASS  N/A       29  29 100 N13        N/A   WCI  19
$$

MTZ011-013-016-021-035-040-045-047-050-051-281500-
NORTH CENTRAL MONTANA
CITY           SKY/WX    TMP DP  RH WIND       PRES   REMARKS
HAVRE          FOG       34  30  85 NW14      30.06R WCI  24
LEWISTOWN      PTCLDY    41  27  58 W12       30.04R
* N BAR RANCH  CLEAR     45  23  42 NW20      29.98R
* CHESTER      N/A       34  29  82 NW11G16    N/A   WCI  26
* DENTON       N/A       41  23  49 W6G12      N/A
* GEYSER       N/A       36  21  54 W12        N/A   WCI  28
* JUDITH GAP   N/A       40  22  49 VRB9G14    N/A   WCI  34
* LOMA         N/A       39  28  65 W8G15      N/A   WCI  33
$$

MTZ017>020-022>027-061-062-281500-
NORTHEAST MONTANA
CITY           SKY/WX    TMP DP  RH WIND       PRES   REMARKS
GLASGOW        PTCLDY    36  30  79 NW15      29.88R WCI  27
GLENDIVE       CLOUDY    45  28  51 W14       29.83R
JORDAN         CLOUDY    37  30  76 NW9       29.90R WCI  30
SIDNEY         MOCLDY    43  30  60 NW6       29.81R
WOLF POINT     MOCLDY    37  30  76 W10       29.83R WCI  30
* BEAVER HILL  N/A       41  30  65 W15        N/A
* CIRCLE       N/A       43  32  65 NW9G16     N/A
* LINDSAY DVD  N/A       44  27  51 W23G30     N/A
* NAVAJO       N/A       35  30  82 NW20G28    N/A   WCI  24
* SACO         N/A       35  30  82 W10G15     N/A   WCI  27
$$

MTZ028>042-056>058-281500-
SOUTHCENTRAL AND SOUTHEAST MONTANA
CITY           SKY/WX    TMP DP  RH WIND       PRES   REMARKS
BAKER          MOCLDY    39  30  70 W16       29.83R WCI  30
BILLINGS       CLOUDY    52  34  50 W15       29.99R
LIVINGSTON     CLOUDY    45  36  71 W16       30.08R
MILES CITY     MOCLDY    43  30  60 NW10      29.89R
* LAUREL APT   CLOUDY    46  28  50 N/A        N/A
* ROUNDUP APT  MOCLDY    46  25  44 NW10G16    N/A
* ALZADA       N/A       39  31  73 W6         N/A   WCI  35
* HYSHAM       N/A       44  28  53 W4         N/A
* REED POINT   N/A       50  31  48 W7         N/A
* ROSCOE HILL  N/A       43  31  63 W3G9       N/A
$$

REGIONAL REPORTS...DAKOTAS
CITY           SKY/WX    TMP DP  RH WIND       PRES   REMARKS
WILLISTON      PTCLDY    36  32  85 W13       29.76R WCI  27
DICKINSON      MOCLDY    37  30  76 W13       29.74R WCI  29
CROSBY         FOG       28  28 100 NE8       29.79R VSB 1/2  WCI  20
WATFORD CITY   CLEAR     32  32 100 SW7       29.75R WCI  25
BISMARCK       MOCLDY    25  25 100 CALM      29.73S
GRAND FORKS    FOG       34  32  92 S10       29.79F WCI  26
FARGO          FOG       34  30  85 S14G24    29.80S WCI  24
BUFFALO SD     MOCLDY    43  30  60 W9        29.76R
RAPID CITY     PTCLDY    46  28  50 NW12      29.81R
$$

REGIONAL REPORTS...WYOMING/IDAHO/WASHINGTON
CITY           SKY/WX    TMP DP  RH WIND       PRES   REMARKS
GILLETTE       CLOUDY    45  28  51 W10       29.95R
SHERIDAN       LGT RAIN  46  36  68 NW10G26   29.99R
CODY           CLOUDY    45  32  60 W6        30.06R
YELLOWSTONE LA CLOUDY    28  28 100 CALM      30.17R
SALMON         PTCLDY   N/A N/A N/A CALM      30.25R
MULLAN PASS    FOG       28  27  96 VRB3      30.19S VSB M1/4
SAND POINT     CLOUDY    34  34 100 SW3       30.29R
SPOKANE        FOG       32  30  92 CALM      30.27R VSB 1/2
$$

REGIONAL REPORTS...ALBERTA
CITY           SKY/WX    TMP DP  RH WIND       PRES   REMARKS
LETHBRIDGE     FOG       30  30 100 W6        30.13R WCI  24
$$

REGIONAL REPORTS...SASKATCHEWAN
CITY           SKY/WX    TMP DP  RH WIND       PRES   REMARKS
SWIFT CURRENT  FRZ RAIN  28  28 100 NW22      29.95R VSB M1/4 WCI  14

$$




USA.gov is the U.S. government's official web portal to all federal, state and local government web resources and services.